Simultaneous Nadir Overpasses (SNOs) Predictions

Prediction of SNOs between NOAA-19 and TERRA Satellite Orbit:

Table of predicted SNOs for the next 14.0 days since TLE Epoch: 11/3/2011
Index Date Time (NOAA-19) NOAA-19 Lat,Lon TERRA Lat,Lon Distance(km) Time Diff (sec)
1 11/05/2011 03:13:08 71.11, 127.65 71.01, 133.68 217.61 53
2 11/05/2011 04:03:32 -68.92, -61.72 -68.90, -61.68 3.06 35
3 11/05/2011 04:54:29 68.76, 105.77 68.74, 105.77 1.31 54
4 11/05/2011 05:44:39 -65.76, -83.40 -65.76, -89.91 297.23 43
5 11/07/2011 07:57:37 69.61, 58.82 69.50, 60.41 62.85 68
6 11/07/2011 08:48:27 -68.81,-132.79 -68.83,-132.84 3.24 2
7 11/07/2011 09:39:12 67.98, 35.56 68.06, 33.86 71.20 68
8 11/09/2011 11:52:12 -71.61, 177.01 -71.59,-175.15 275.05 46
9 11/09/2011 12:42:21 68.90, -11.39 68.91, -11.43 2.55 51
10 11/09/2011 13:33:23 -68.75, 156.04 -68.74, 155.98 2.66 40
11 11/09/2011 14:23:41 66.44, -33.85 66.49, -38.94 225.99 53
12 11/11/2011 16:36:39 -70.06, 108.41 -69.95, 111.26 108.87 65
13 11/11/2011 17:27:18 68.87, -82.60 68.85, -82.57 2.54 11
14 11/11/2011 18:18:15 -68.48, 85.16 -68.57, 84.71 20.85 73
15 11/11/2011 19:07:57 64.18,-102.77 64.20,-112.18 455.11 13
16 11/13/2011 20:31:15 72.27,-133.98 72.23,-123.80 344.71 35
17 11/13/2011 21:21:15 -68.96, 38.80 -68.93, 38.82 2.91 63
18 11/13/2011 22:12:14 68.80,-153.74 68.77,-153.74 3.64 28
19 11/13/2011 23:02:44 -66.99, 15.79 -67.03, 11.86 170.76 59
20 11/16/2011
